Location: Dana
(41.8364°N, 106.7042°W)
Time: 10:47:49
(UTC+00:00)

Injun/Solrad 3 - Visible Passes

Search period start: 15 May 2026 00:00
Search period end: 25 May 2026 00:00
Orbit: 868 x 988 km, 66.8° (Epoch: 14 May)

Date Brightness Start Highest point End Pass type
(mag) Time Alt. Az. Time Alt. Az. Time Alt. Az.
15 May 10.3 05:33:08 10° N 05:37:03 16° NE 05:41:00 10° ENE visible
15 May 8.2 07:18:24 10° NNW 07:24:49 67° ENE 07:25:58 56° ESE visible
15 May 9.4 09:05:58 10° WNW 09:09:33 21° W 09:09:33 21° W visible
16 May 9.9 05:43:42 10° N 05:48:34 22° NE 05:52:38 13° E visible
16 May 7.8 07:29:24 10° NNW 07:35:54 86° WSW 07:36:14 81° S visible
16 May 9.9 09:18:18 10° WNW 09:19:49 13° W 09:19:49 13° W visible
17 May 9.4 05:54:24 10° NNW 05:59:58 30° NE 06:02:58 21° E visible
17 May 8.1 07:40:33 10° NW 07:46:34 58° WSW 07:46:34 58° WSW visible
18 May 10.4 04:20:53 10° N 04:22:53 11° NNE 04:24:53 10° NE visible
18 May 8.9 06:05:12 10° NNW 06:11:16 41° NE 06:13:21 32° E visible
18 May 8.7 07:51:50 10° NW 07:56:57 37° W 07:56:57 37° W visible
19 May 10.2 04:30:59 10° N 04:34:32 15° NNE 04:38:06 10° ENE visible
19 May 8.3 06:16:05 10° NNW 06:22:27 59° NE 06:23:48 49° E visible
19 May 9.3 08:03:23 10° NW 08:07:25 24° W 08:07:25 24° W visible
20 May 9.9 04:41:29 10° N 04:46:05 20° NE 04:50:41 10° E visible
20 May 7.9 06:27:04 10° NNW 06:33:33 85° ENE 06:34:18 71° SE visible
20 May 9.8 08:15:25 10° WNW 08:17:54 16° W 08:17:54 16° W visible
21 May 9.5 04:52:09 10° NNW 04:57:32 27° NE 05:01:13 17° E visible
21 May 8.0 06:38:09 10° NW 06:44:33 67° WSW 06:44:50 66° SW visible
22 May 10.4 03:19:11 10° NNE 03:20:19 10° NNE 03:21:27 10° NE visible
22 May 9.0 05:02:55 10° NNW 05:08:51 37° NE 05:11:48 25° E visible
22 May 8.5 06:49:23 10° NW 06:55:25 45° WSW 06:55:25 45° WSW visible
23 May 10.2 03:28:52 10° N 03:32:00 14° NNE 03:35:09 10° ENE visible
23 May 8.5 05:13:47 10° NNW 05:20:05 52° NE 05:22:25 36° ESE visible
23 May 9.1 07:00:50 10° NW 07:06:02 29° WSW 07:06:02 29° WSW visible
24 May 9.9 03:39:18 10° N 03:43:35 18° NE 03:47:53 10° E visible
24 May 8.0 05:24:44 10° NNW 05:31:13 75° ENE 05:33:05 48° SE visible
24 May 9.6 07:12:40 10° WNW 07:16:42 19° W 07:16:42 19° W visible
